Location: Newark
(45.2500°N, 7.5833°E)
Time: 13:08:52
(UTC+00:00)

A-11 Canister half - Pass Details

Date: 02 February 2020
Orbit: 1524 x 1684 km, 47.3° (Epoch: 24 February)

Event Time Altitude Azimuth Distance (km) Brightness Sun altitude
Rises 17:29:04 0° 269° (W) 4,674 13.4 -9.4°
Reaches altitude 10° 17:32:06 10° 271° (W) 3,698 12.4 -9.9°
Maximum altitude 17:41:28 79° 358° (N) 1,578 9.0 -11.5°
Enters shadow 17:49:41 16° 85° (E) 3,349 10.1 -12.9°
Drops below altitude 10° 17:51:06 10° 86° (E) 3,794 - -13.2°
Sets 17:54:15 0° 88° (E) 4,800 - -13.7°
